Temp
7 7 7 6 6 6 6 6 6 5 5 5 5 5 5 4 4 4 4 3 3 3 3 3 3 3 3 3 3 3 2 2 1 1 1 1 1 1 1 1 1 1 1 1 1 1 1 1 1 1 1 0 0 0 0 0 0 -0 -0 -0 -0 -0 -0 -0 -0 -0 -0 -0 -0
7 7 6 6 6 6 6 5 5 5 5 5 5 5 4 4 4 4 3 3 3 3 3 3 3 3 3 3 2 2 2 1 1 1 1 1 1 1 1 1 1 1 1 1 1 1 1 1 1 1 0 0 0 0 -0 -0 -0 -0 -0 -0 -0 -0 -0 -0 -0 -0 -0 -0 -0
7 6 6 6 6 6 6 6 5 5 5 5 5 4 4 4 3 3 3 3 3 3 2 2 2 2 2 2 2 2 1 1 1 1 1 1 1 1 1 1 1 1 1 1 1 1 1 1 1 1 0 0 0 0 -0 -0 -0 -0 -0 -0 -0 -0 -0 -0 -0 -0 -0 -0 -1
6 6 6 6 6 6 6 5 5 5 5 4 4 4 4 3 3 3 3 3 2 2 2 2 2 2 2 2 2 1 1 1 1 1 1 1 1 1 1 1 1 1 1 1 1 1 1 1 1 0 0 0 0 -0 -0 -0 -0 -0 -0 -0 -0 -0 -0 -0 -1 -1 -1 -1 -1
6 6 6 6 6 6 5 5 5 5 4 4 4 4 3 3 3 3 3 2 2 2 2 2 2 2 2 2 1 1 1 1 1 1 1 1 1 1 1 1 1 1 1 1 1 1 1 1 0 0 0 0 0 -0 -0 -0 -0 -0 -0 -0 -1 -1 -1 -1 -1 -1 -1 -1 -1
6 6 6 6 6 6 5 5 5 4 4 4 4 4 3 3 3 3 3 2 2 2 2 2 2 2 2 1 1 1 1 1 1 1 1 1 1 1 1 1 1 1 1 1 1 1 1 1 0 0 0 0 0 -0 -0 -0 -0 -0 -0 -0 -1 -1 -1 -1 -1 -1 -1 -1 -1
6 6 6 6 6 5 5 5 5 4 4 4 4 4 3 3 3 3 2 2 2 2 2 2 2 1 1 1 1 1 1 1 1 1 1 1 1 1 1 1 1 1 1 1 1 1 1 1 1 0 0 0 -0 -0 -0 -0 -0 -0 -0 -0 -1 -1 -1 -1 -1 -1 -1 -1 -1
6 6 6 6 5 5 5 5 5 4 4 4 4 4 3 3 3 3 2 2 2 2 2 2 1 1 1 1 1 1 1 1 1 1 1 1 1 1 1 1 1 1 1 1 1 1 1 1 1 1 0 0 0 -0 -0 -0 -0 -0 -0 -0 -0 -1 -1 -1 -1 -1 -1 -1 -1
6 6 6 6 5 5 5 5 5 4 4 4 4 3 3 3 3 2 2 2 2 2 2 1 1 1 1 1 1 1 1 1 1 1 1 1 1 1 1 1 1 1 1 1 1 1 1 1 1 1 1 1 0 0 0 0 -0 -0 -0 -0 -1 -1 -1 -1 -1 -1 -1 -1 -1
6 6 6 5 5 5 5 5 4 4 4 4 4 3 3 3 2 2 2 2 2 2 2 1 1 1 1 1 1 1 1 1 1 1 1 1 1 1 1 1 1 1 1 1 1 1 1 1 1 1 1 1 1 1 0 0 -0 -0 -0 -1 -1 -1 -1 -1 -1 -1 -1 -1 -2
6 6 5 5 5 5 5 4 4 4 4 4 3 3 3 3 2 2 2 2 2 2 2 1 1 1 1 1 1 1 1 1 1 1 1 1 1 1 1 1 1 1 1 1 1 1 1 1 1 1 1 1 1 1 0 0 0 -0 -0 -1 -1 -1 -1 -1 -1 -1 -1 -2 -2
6 6 5 5 5 5 4 4 4 4 4 3 3 3 3 2 2 2 2 2 2 2 2 1 1 1 1 1 1 1 1 1 1 1 1 1 1 1 1 1 1 1 1 1 1 1 1 1 1 1 1 1 1 1 0 0 0 -0 -1 -1 -1 -1 -1 -1 -1 -1 -2 -2 -2
6 6 5 5 5 4 4 4 4 4 3 3 3 3 3 2 2 2 2 2 2 2 2 1 1 1 1 1 1 1 1 1 1 1 1 1 1 1 1 1 1 1 1 1 1 1 1 1 1 1 1 1 1 0 0 0 0 -0 -1 -1 -1 -1 -1 -1 -1 -1 -2 -2 -2
6 5 5 5 4 4 4 4 4 4 3 3 3 3 3 2 2 2 2 2 2 2 1 1 1 1 1 1 1 1 1 1 1 1 1 1 1 1 1 1 1 1 1 1 1 1 1 1 1 1 1 1 0 0 0 0 -0 -0 -1 -1 -1 -1 -1 -1 -1 -2 -2 -2 -2
5 5 5 5 4 4 4 4 4 3 3 3 3 3 2 2 2 2 2 2 2 1 1 1 1 1 1 1 1 1 1 1 1 1 1 1 1 1 1 1 1 1 1 1 1 1 1 1 1 1 1 0 0 0 0 0 -0 -0 -1 -1 -1 -1 -1 -1 -1 -2 -2 -2 -2
5 5 5 4 4 4 4 4 4 3 3 3 3 3 2 2 2 2 2 2 1 1 1 1 1 1 1 1 1 1 1 1 1 1 1 1 1 1 1 1 1 1 1 1 1 1 1 1 1 1 0 0 0 0 0 -0 -0 -0 -1 -1 -1 -1 -1 -1 -2 -2 -2 -2 -2
5 5 4 4 4 4 4 4 3 3 3 3 3 3 2 2 2 2 2 1 1 1 1 1 1 1 1 1 1 1 1 1 1 1 1 1 1 1 1 1 1 1 1 1 1 1 1 1 1 1 0 0 0 0 -0 -0 -0 -1 -1 -1 -1 -1 -2 -2 -2 -2 -2 -2 -2
5 5 4 4 4 4 4 4 3 3 3 3 3 2 2 2 2 2 1 1 1 1 1 1 1 1 1 1 1 1 1 1 1 1 1 1 1 1 1 1 1 1 1 1 1 1 1 1 0 0 0 0 0 0 -0 -0 -0 -1 -1 -1 -1 -2 -2 -2 -2 -2 -2 -2 -2
5 5 4 4 4 4 4 4 3 3 3 3 3 2 2 2 2 2 1 1 1 1 1 1 1 1 1 1 1 1 1 1 1 1 1 1 1 1 1 1 1 1 1 1 1 1 0 0 0 0 0 0 0 -0 -0 -0 -0 -1 -1 -1 -1 -2 -2 -2 -2 -3 -3 -3 -3
5 5 4 4 4 4 4 3 3 3 3 3 2 2 2 2 2 2 2 2 1 1 1 1 1 1 1 1 1 1 1 1 1 1 1 1 1 1 1 1 1 1 1 1 0 0 0 0 0 0 0 -0 -0 -0 -0 -0 -0 -1 -1 -1 -2 -2 -2 -2 -3 -3 -3 -3 -3
5 5 4 4 4 4 4 3 3 3 3 3 2 2 2 2 2 2 2 2 2 1 1 1 1 1 1 1 1 1 1 1 1 1 1 1 1 1 1 1 1 1 1 0 0 0 0 0 0 -0 -0 -0 -0 -0 -0 -0 -1 -1 -1 -2 -2 -2 -2 -2 -3 -3 -3 -3 -3
5 5 4 4 4 4 4 3 3 3 3 3 2 2 2 2 2 2 2 2 2 1 1 1 1 1 1 1 1 1 1 1 1 1 1 1 1 1 1 1 1 1 0 0 0 0 0 -0 -0 -0 -0 -0 -0 -0 -1 -1 -1 -1 -2 -2 -2 -2 -2 -2 -3 -3 -3 -3 -3
5 4 4 4 4 4 4 3 3 3 3 3 2 2 2 2 2 2 2 2 2 1 1 1 1 1 1 1 1 1 1 1 1 1 1 1 1 1 1 1 1 1 0 0 0 -0 -0 -0 -0 -0 -1 -1 -1 -1 -1 -1 -1 -2 -2 -2 -2 -2 -2 -3 -3 -3 -3 -3 -4
4 4 4 4 4 4 4 3 3 3 3 3 2 2 2 2 2 2 2 2 2 1 1 1 1 1 1 1 1 1 1 1 1 1 1 1 1 1 1 1 0 0 0 0 -0 -0 -0 -1 -1 -1 -1 -1 -1 -1 -1 -1 -1 -2 -2 -2 -2 -3 -3 -3 -3 -3 -3 -4 -4
4 4 4 4 4 4 3 3 3 3 3 3 2 2 2 2 2 2 2 2 2 1 1 1 1 1 1 1 1 1 1 1 1 1 1 1 1 1 1 0 0 0 -0 -0 -0 -0 -1 -1 -1 -1 -2 -2 -2 -2 -2 -2 -2 -2 -2 -2 -3 -3 -3 -3 -4 -4 -4 -4 -4
4 4 4 4 4 3 3 3 3 3 3 2 2 2 2 2 2 2 2 2 1 1 1 1 1 1 1 1 1 1 1 1 1 1 1 1 1 1 0 0 0 -0 -0 -0 -1 -1 -1 -1 -1 -1 -2 -2 -2 -2 -2 -2 -2 -2 -3 -3 -3 -4 -4 -4 -4 -4 -4 -4 -5
4 4 4 4 4 3 3 3 3 3 3 2 2 2 2 2 2 2 2 2 1 1 1 1 1 1 1 1 1 1 1 1 1 1 1 1 1 0 0 -0 -0 -0 -1 -1 -1 -1 -1 -1 -1 -2 -2 -2 -2 -2 -3 -3 -3 -3 -3 -3 -4 -4 -4 -4 -4 -5 -5 -5 -5
4 4 4 4 4 3 3 3 3 3 2 2 2 2 2 2 2 2 2 1 1 1 1 1 1 1 1 1 1 1 1 1 1 1 1 1 0 0 -0 -0 -0 -1 -1 -1 -1 -1 -2 -2 -2 -2 -2 -2 -2 -3 -3 -3 -3 -3 -4 -4 -4 -4 -4 -5 -5 -5 -5 -5 -6
4 4 4 4 4 4 3 3 3 3 2 2 2 2 2 2 2 2 2 1 1 1 1 1 1 1 1 1 1 1 1 1 1 1 1 0 0 0 -0 -0 -1 -1 -1 -1 -1 -2 -2 -2 -2 -2 -2 -3 -3 -3 -3 -3 -4 -4 -4 -4 -4 -5 -5 -5 -5 -6 -6 -6 -6
4 4 4 4 4 4 3 3 3 3 2 2 2 2 2 2 2 2 1 1 1 1 1 1 1 1 1 1 1 1 1 1 1 1 0 0 0 -0 -0 -1 -1 -1 -1 -2 -2 -2 -2 -3 -3 -3 -3 -3 -3 -3 -4 -4 -4 -4 -5 -5 -5 -5 -5 -6 -6 -6 -6 -6 -6
4 4 4 4 4 4 3 3 3 2 2 2 2 2 2 2 2 1 1 1 1 1 1 1 1 1 1 1 1 1 1 1 1 0 0 0 -0 -0 -1 -1 -1 -2 -2 -2 -2 -3 -3 -3 -3 -3 -4 -4 -4 -4 -4 -4 -5 -5 -5 -5 -6 -6 -6 -6 -6 -6 -6 -7 -7
4 4 4 4 4 4 3 3 3 2 2 2 2 2 2 2 2 1 1 1 1 1 1 1 1 1 1 1 1 1 1 0 0 0 0 -0 -0 -1 -1 -1 -2 -2 -2 -2 -3 -3 -4 -4 -4 -4 -4 -4 -4 -5 -5 -5 -5 -5 -6 -6 -6 -6 -6 -7 -7 -7 -7 -7 -7
4 4 4 4 4 3 3 3 3 2 2 2 2 2 2 2 1 1 1 1 1 1 1 1 1 1 1 1 1 1 0 0 0 0 -0 -0 -1 -1 -1 -2 -2 -2 -3 -3 -3 -4 -4 -4 -4 -5 -5 -5 -5 -5 -5 -6 -6 -6 -6 -6 -6 -6 -7 -7 -7 -7 -7 -7 -8
4 4 4 4 3 3 3 3 2 2 2 2 2 2 2 1 1 1 1 1 1 1 1 1 1 1 1 1 0 0 0 0 -0 -0 -0 -1 -1 -1 -2 -2 -2 -3 -3 -3 -4 -4 -4 -5 -5 -5 -5 -5 -5 -6 -6 -6 -6 -6 -6 -6 -7 -7 -7 -7 -7 -8 -8 -8 -8
4 4 4 3 3 3 3 3 2 2 2 2 2 2 1 1 1 1 1 1 1 1 1 1 1 1 1 0 0 0 0 -0 -0 -0 -1 -1 -1 -2 -2 -2 -3 -3 -3 -3 -4 -4 -5 -5 -5 -5 -5 -6 -6 -6 -6 -6 -6 -6 -7 -7 -7 -7 -7 -8 -8 -8 -8 -8 -8
4 4 3 3 3 3 3 3 2 2 2 2 2 1 1 1 1 1 1 1 1 1 1 1 1 1 0 0 0 -0 -0 -0 -1 -1 -1 -1 -2 -2 -2 -3 -3 -3 -3 -4 -4 -4 -5 -5 -5 -5 -6 -6 -6 -6 -6 -7 -7 -7 -7 -7 -7 -7 -8 -8 -8 -8 -8 -8 -8
4 3 3 3 3 3 3 2 2 2 2 2 2 1 1 1 1 1 1 1 1 1 1 1 0 0 0 -0 -0 -0 -1 -1 -1 -1 -1 -2 -2 -2 -3 -3 -3 -3 -4 -4 -4 -5 -5 -5 -5 -5 -6 -6 -6 -6 -7 -7 -7 -7 -7 -7 -7 -8 -8 -8 -8 -8 -8 -8 -9
3 3 3 3 3 3 2 2 2 2 2 2 1 1 1 1 1 1 1 0 0 0 0 0 0 -0 -0 -0 -1 -1 -1 -1 -1 -2 -2 -2 -3 -3 -3 -3 -4 -4 -4 -4 -5 -5 -5 -5 -6 -6 -6 -6 -6 -7 -7 -7 -7 -8 -8 -8 -8 -8 -8 -8 -8 -8 -8 -9 -9
3 3 3 3 3 2 2 2 2 2 2 1 1 1 1 1 0 0 0 0 0 0 0 0 -0 -0 -0 -1 -1 -1 -1 -2 -2 -2 -2 -3 -3 -3 -3 -4 -4 -4 -5 -5 -5 -5 -5 -6 -6 -6 -6 -6 -6 -7 -7 -8 -8 -8 -8 -8 -8 -8 -8 -8 -8 -8 -8 -9 -9
3 3 3 3 2 2 2 2 2 2 1 1 1 1 0 0 0 0 0 0 0 0 -0 -0 -0 -1 -1 -1 -1 -1 -2 -2 -2 -2 -3 -3 -3 -4 -4 -4 -5 -5 -5 -5 -5 -5 -6 -6 -6 -7 -7 -7 -7 -7 -7 -8 -8 -8 -8 -8 -8 -8 -8 -8 -8 -8 -8 -8 -8
3 3 3 2 2 2 2 2 2 1 1 1 1 0 0 0 0 0 0 0 0 -0 -0 -1 -1 -1 -1 -1 -2 -2 -2 -2 -3 -3 -3 -3 -4 -4 -4 -5 -5 -5 -5 -5 -6 -6 -6 -6 -7 -7 -7 -7 -7 -7 -8 -8 -8 -8 -8 -8 -8 -8 -8 -8 -8 -8 -8 -8 -8
Height
863 863 863 863 863 863 863 863 862 862 862 862 862 861 861 860 859 859 858 858 857 857 857 856 856 855 854 853 853 852 851 850 849 849 848 847 847 846 845 844 844 843 842 842 841 840 840 839 839 838 837 837 836 835 835 834 833 832 832 831 830 829 828 827 826 825 824 823 822
863 863 863 863 862 862 862 862 862 862 861 861 861 860 860 859 859 858 858 857 857 856 856 855 855 854 853 853 852 851 850 849 849 848 847 847 846 845 845 844 843 842 842 841 840 840 839 839 838 838 837 837 836 835 834 833 832 832 831 830 829 828 827 827 826 824 823 822 821
863 863 863 863 863 862 862 862 862 862 861 860 860 859 859 858 858 857 857 857 856 855 855 854 854 853 852 852 851 850 850 849 848 847 847 846 846 845 844 843 843 842 841 841 840 839 839 838 838 837 837 836 835 834 834 833 832 831 830 830 829 828 827 826 825 824 823 822 821
862 862 862 862 862 862 862 862 861 861 860 859 859 858 858 858 857 857 856 856 855 855 854 853 853 852 852 851 850 850 849 848 847 847 847 846 845 844 844 843 842 842 841 840 840 839 838 838 837 837 836 835 835 834 833 832 831 831 830 829 828 827 826 825 824 823 822 821 820
862 862 862 862 862 862 861 861 860 860 859 859 858 858 857 857 857 856 856 855 855 854 853 853 852 852 851 850 850 849 848 847 847 847 846 845 845 844 843 842 842 841 840 840 839 838 838 837 837 836 836 835 834 833 832 832 831 830 829 828 827 826 825 824 823 822 822 821 819
862 862 862 862 861 861 860 860 859 859 859 858 858 857 857 857 856 856 855 855 854 853 853 852 852 851 850 850 849 848 848 847 847 846 845 845 844 843 843 842 841 841 840 839 839 838 837 837 836 836 835 834 833 832 832 831 830 829 828 827 827 826 824 823 822 822 821 820 818
862 862 862 861 861 860 860 859 859 858 858 858 857 857 857 856 856 855 854 854 853 853 852 852 851 850 850 849 848 848 847 847 846 846 845 844 844 843 842 842 841 840 840 839 838 837 837 836 836 835 834 833 833 832 831 830 829 828 827 827 826 825 824 822 822 821 820 819 817
862 862 861 861 861 860 860 859 859 858 858 857 857 857 856 856 855 854 854 853 853 852 852 851 850 850 849 848 848 847 847 846 846 845 844 844 843 842 842 841 841 840 839 838 838 837 836 836 835 834 833 832 832 831 830 829 828 827 827 826 825 824 823 822 821 820 819 818 817
862 861 861 860 860 860 859 859 858 858 857 857 857 856 855 855 854 854 853 853 852 852 851 851 850 849 848 848 847 847 846 846 845 844 844 843 842 842 842 841 840 839 839 838 837 836 836 835 834 833 832 832 831 830 829 828 827 827 826 825 824 823 822 821 820 819 818 817 816
861 861 860 860 860 859 859 858 858 857 857 857 856 855 855 854 854 853 853 852 852 851 851 850 849 849 848 847 847 846 846 845 844 844 843 842 842 841 841 840 839 839 838 837 837 836 835 834 833 832 832 831 830 829 828 827 827 826 825 824 823 822 821 821 819 818 817 817 815
861 860 860 860 859 859 858 858 857 857 857 856 855 855 854 854 853 853 852 852 851 851 850 849 849 848 847 847 846 846 845 844 844 843 842 842 841 841 840 839 839 838 837 837 836 835 834 833 832 832 831 830 829 828 827 827 826 825 824 823 822 822 821 820 819 818 817 816 815
860 860 860 859 859 858 858 857 857 857 856 855 855 854 854 853 853 852 852 851 851 850 850 849 848 847 847 847 846 845 845 844 843 843 842 841 841 840 839 839 838 837 837 836 835 834 833 832 832 831 830 829 828 827 827 826 825 824 823 822 822 821 820 819 818 817 816 815 814
860 859 859 859 858 858 857 857 857 856 855 855 854 854 853 853 852 852 851 851 850 850 849 848 848 847 847 846 845 845 844 843 843 842 842 841 840 839 838 838 837 837 836 835 834 833 832 832 831 830 829 828 827 827 826 825 824 823 822 821 821 820 819 818 817 816 815 814 813
859 859 858 858 857 857 857 856 856 855 855 854 854 853 852 852 852 851 851 850 850 849 849 848 847 847 846 845 845 844 843 843 842 842 841 840 839 839 838 837 837 836 835 834 833 832 832 831 830 829 828 827 827 826 825 824 823 822 821 820 819 818 817 817 816 815 813 812 812
858 858 857 857 857 857 856 856 855 855 854 853 853 852 852 852 851 850 850 850 849 849 848 847 847 846 846 845 844 844 843 842 842 841 840 839 839 838 837 837 836 835 834 833 832 832 831 830 829 828 827 826 826 825 824 823 822 821 820 819 818 817 816 815 814 813 812 811 810
857 857 857 856 856 856 855 855 854 854 853 853 852 852 851 851 850 850 849 849 848 848 847 847 846 846 845 845 844 843 842 842 841 840 840 839 838 837 837 836 835 834 833 832 832 831 830 829 828 827 826 825 824 823 822 822 821 820 819 818 817 816 815 814 813 812 811 810 809
857 856 856 855 855 855 854 854 853 853 852 852 852 851 851 850 850 849 849 848 848 847 847 847 846 845 845 844 843 842 842 841 840 840 839 838 837 837 836 835 834 833 832 832 831 830 829 828 827 826 825 824 823 822 822 821 819 818 817 817 816 815 814 813 812 811 810 809 808
856 855 855 854 854 854 853 853 852 852 852 851 851 850 850 849 849 849 848 848 847 847 846 846 845 845 844 843 842 842 841 841 840 839 838 837 837 836 835 834 833 832 832 831 830 829 828 827 826 825 824 823 822 821 820 819 818 817 816 815 814 814 813 812 811 810 809 808 808
855 854 854 854 853 853 852 852 852 851 851 850 850 850 849 849 848 848 847 847 847 846 846 845 844 844 843 843 842 841 841 840 839 838 837 837 836 835 834 833 832 832 831 830 829 828 827 826 825 824 823 822 822 820 819 818 817 816 815 814 813 813 812 811 810 809 808 807 806
854 853 853 853 852 852 852 851 851 850 850 850 849 849 848 848 848 847 847 846 846 845 845 844 844 843 842 842 841 841 840 839 838 837 837 836 835 834 833 832 831 831 830 829 828 827 826 825 824 823 822 822 821 819 818 817 816 815 814 813 812 812 811 810 810 809 808 807 806
853 853 852 852 852 851 851 850 850 850 849 849 848 848 848 847 847 847 846 846 845 845 844 843 843 842 842 841 840 840 839 838 837 836 836 835 834 833 832 831 830 830 829 828 827 826 825 824 823 822 822 820 819 818 817 816 815 814 813 812 811 811 810 809 808 808 807 806 805
852 852 852 851 851 850 850 850 849 849 848 848 848 847 847 847 846 846 845 845 844 844 843 843 842 842 841 840 839 838 838 837 837 836 835 834 833 832 831 830 830 829 828 827 826 825 824 823 822 821 820 819 818 817 816 815 814 813 812 811 810 809 809 808 807 806 806 805 804
851 851 851 850 850 850 849 849 848 848 848 847 847 847 846 846 846 845 845 844 844 843 842 842 841 841 840 839 838 838 837 836 835 835 834 833 832 831 830 829 829 828 827 826 825 824 823 822 821 820 819 818 817 816 815 814 813 812 811 810 809 808 808 807 806 805 804 803 802
851 850 850 849 849 849 848 848 847 847 847 847 846 846 846 845 845 844 844 843 843 842 842 841 841 840 839 838 838 837 836 835 834 833 833 832 831 830 829 828 827 827 826 825 824 823 822 821 820 819 818 817 816 815 814 812 812 811 810 809 808 807 806 805 804 803 803 802 801
850 849 849 848 848 848 847 847 847 846 846 846 845 845 845 844 844 843 843 842 842 842 841 840 840 839 838 837 837 836 835 834 833 832 832 831 830 829 828 827 827 826 825 824 823 822 822 821 819 818 817 816 815 813 812 812 811 809 808 808 807 806 805 804 803 802 801 801 800
849 848 848 847 847 847 847 846 846 845 845 845 844 844 844 843 843 842 842 842 841 841 840 839 839 838 837 837 836 835 834 833 832 831 830 829 829 828 827 827 826 825 824 823 822 822 821 820 819 818 817 816 814 813 812 811 810 808 808 807 806 805 804 803 802 801 800 799 798
848 847 847 847 846 846 846 845 845 844 844 844 843 843 843 842 842 842 841 841 840 840 839 838 838 837 836 836 835 834 833 832 831 830 829 828 827 827 826 826 825 824 823 822 821 820 819 819 818 817 816 815 813 812 811 810 809 808 807 806 805 804 803 802 801 799 798 798 797
847 847 846 846 845 845 844 844 844 843 843 843 842 842 842 842 841 841 840 840 839 839 838 837 837 836 835 835 834 833 832 831 830 829 828 827 827 826 825 824 824 823 822 821 820 819 818 817 817 816 815 814 812 811 810 809 808 807 806 805 804 803 802 801 799 798 797 796 795
846 846 845 845 844 844 843 843 843 842 842 842 842 841 841 841 840 840 839 839 838 838 837 837 836 835 834 834 833 832 831 830 829 828 827 826 826 825 824 823 823 822 821 820 819 818 817 816 815 814 813 812 812 810 809 808 807 806 805 804 803 802 801 799 798 797 796 795 794
845 845 844 844 843 843 842 842 842 842 841 841 841 840 840 840 839 839 838 838 837 837 836 836 835 834 833 832 832 831 830 829 828 827 826 825 824 824 823 822 822 821 820 819 818 817 816 815 814 813 812 811 810 809 808 807 806 805 804 803 802 801 800 799 798 797 795 794 793
844 844 843 843 842 842 841 841 841 840 840 840 840 839 839 839 838 838 837 837 836 836 835 835 834 833 832 832 831 830 829 828 827 826 825 824 823 823 822 822 821 820 819 818 817 817 815 814 813 812 811 810 809 808 808 807 805 804 803 803 801 800 799 798 797 796 794 793 792
843 842 842 842 841 841 840 840 840 839 839 839 839 838 838 838 837 837 837 836 835 835 834 834 833 832 832 831 830 829 828 827 826 825 824 823 823 822 821 821 820 819 818 817 817 816 815 813 812 812 811 809 809 808 807 806 805 804 803 802 801 799 798 797 796 794 793 792 791
842 842 841 840 840 839 839 839 839 838 838 838 838 837 837 837 837 836 836 835 834 834 833 832 832 831 830 829 828 828 827 826 825 824 823 822 822 821 821 820 819 819 818 817 816 815 814 813 812 811 810 809 808 807 806 805 804 803 802 801 800 798 797 796 795 793 792 791 790
841 840 840 839 839 838 838 838 837 837 837 837 837 837 836 836 835 835 835 834 833 833 832 832 831 830 829 828 827 827 826 825 824 823 822 822 821 821 820 819 819 818 817 817 816 815 814 812 811 810 809 808 807 806 805 804 803 802 801 800 799 798 796 795 794 793 791 790 788
840 839 838 838 837 837 837 837 837 836 836 836 836 836 835 835 835 834 834 833 832 832 832 831 830 829 828 827 827 826 825 824 823 822 822 821 820 820 819 819 818 817 817 816 815 814 813 812 811 810 808 807 806 805 804 803 802 801 800 799 798 796 795 794 793 791 790 788 787
838 838 837 837 837 836 836 836 836 835 835 835 835 834 834 834 834 833 833 832 832 831 831 830 829 828 827 827 826 825 824 823 822 822 821 820 820 819 819 818 817 817 816 815 814 813 812 812 811 809 808 807 805 804 803 802 801 800 798 798 796 795 794 793 791 790 788 788 786
837 837 836 836 835 835 835 835 834 834 834 834 834 834 833 833 833 832 832 831 831 830 829 829 828 827 827 826 825 824 823 822 822 821 821 820 819 819 818 818 817 816 815 815 814 813 812 811 810 809 808 806 805 803 802 801 800 798 798 796 795 794 793 791 790 789 788 786 785
836 836 835 835 834 834 834 834 834 833 833 833 833 833 832 832 832 832 831 830 830 829 828 828 827 827 826 825 824 823 822 822 821 821 820 819 819 818 818 817 816 816 815 814 813 812 811 810 809 808 807 806 804 803 801 800 799 798 797 795 794 793 791 790 789 788 786 785 784
835 834 834 833 833 833 833 833 833 832 832 832 832 832 832 831 831 831 830 829 829 828 828 827 827 826 825 824 823 823 822 822 821 820 820 819 818 818 817 817 816 815 814 813 812 811 810 809 808 807 806 805 803 802 801 799 798 797 796 794 793 791 790 789 788 787 785 784 783
834 833 833 832 832 832 832 832 832 832 832 831 831 831 831 830 830 830 829 828 828 827 827 826 826 825 824 823 823 822 822 821 820 820 819 818 818 817 817 816 815 814 813 812 812 811 809 808 807 806 805 804 803 801 800 798 797 796 795 793 792 790 789 788 787 786 785 783 782
832 832 832 832 831 831 831 831 831 831 831 830 830 830 830 829 829 829 828 828 827 827 826 826 825 824 823 823 822 822 821 821 820 819 819 818 817 817 816 816 815 814 813 812 811 810 808 808 807 806 805 803 802 801 799 798 797 795 794 793 791 790 788 788 786 785 784 783 782
Wind_Speed
18 17 17 16 16 15 14 13 13 12 12 11 10 10 9 8 7 7 8 8 7 8 8 8 9 9 9 9 9 10 10 9 9 9 9 9 9 9 9 9 10 10 11 11 11 10 10 9 8 7 8 10 11 12 12 13 13 12 11 11 10 10 11 11 12 12 12 12 12
18 17 16 16 15 14 13 12 12 12 12 12 12 11 10 9 8 8 8 8 8 8 8 8 9 9 9 9 9 9 9 9 9 8 8 8 8 8 9 10 10 11 11 12 12 11 10 9 9 8 8 9 10 11 11 13 14 12 11 11 10 10 10 11 12 12 12 12 12
17 17 16 15 14 13 13 12 11 12 12 12 12 11 10 10 9 9 9 10 10 10 10 9 9 9 9 9 8 8 8 8 8 8 8 7 7 8 9 10 10 11 12 12 12 12 11 10 9 9 8 8 9 10 11 12 13 12 11 11 10 10 11 11 11 11 12 12 12
17 17 16 16 15 14 13 13 12 12 12 12 11 11 11 11 10 10 10 11 11 11 11 11 10 10 10 9 9 9 9 9 8 8 7 7 7 8 9 9 10 11 11 11 11 11 11 10 9 9 9 8 9 10 11 12 12 12 11 11 11 11 11 11 11 11 11 11 12
17 16 16 15 15 14 14 13 13 12 12 12 12 12 12 11 11 11 11 11 11 11 12 11 11 10 10 10 10 10 10 9 9 7 7 6 6 7 8 9 10 10 10 11 11 11 11 11 10 9 9 9 9 10 11 13 13 12 12 12 12 12 12 12 12 12 12 11 12
16 16 15 15 15 15 14 14 13 13 12 12 12 12 12 12 12 12 12 11 11 12 12 12 11 11 11 11 11 10 10 10 9 8 7 6 6 7 8 9 10 10 10 11 11 11 11 11 10 10 10 10 10 11 12 13 13 13 13 12 12 13 14 14 14 14 13 13 13
15 15 15 14 14 14 14 14 13 13 13 13 13 12 12 12 11 11 11 11 11 12 12 11 11 11 11 11 11 11 11 10 10 9 8 7 7 7 8 9 10 10 11 11 11 11 11 11 11 11 11 12 11 11 13 14 14 14 13 13 13 14 15 16 16 15 15 15 15
15 14 14 14 14 14 13 13 13 13 12 12 12 12 12 11 11 11 11 11 11 11 11 11 11 11 11 11 12 12 12 11 11 10 9 8 8 8 8 8 10 10 11 11 11 11 11 12 12 12 12 12 11 12 13 14 14 14 14 14 14 15 15 16 16 16 15 15 15
14 14 14 14 14 13 13 13 13 12 12 12 11 11 11 11 11 11 11 11 11 11 11 11 11 11 11 11 12 12 12 12 12 11 10 10 9 9 9 9 10 10 11 11 12 12 12 12 12 13 13 13 13 13 14 14 14 14 14 14 15 15 16 16 16 16 16 15 15
14 14 14 14 13 13 13 12 12 12 12 11 11 10 10 10 10 10 10 10 10 10 10 11 11 11 11 11 11 11 12 12 12 12 11 11 10 10 10 10 10 11 11 12 12 12 13 12 13 13 14 14 15 15 14 14 14 14 14 14 15 15 15 15 16 16 15 15 15
14 14 14 13 12 12 12 12 11 11 11 10 10 10 9 9 10 10 10 10 10 10 10 10 10 10 10 10 11 11 11 11 12 12 12 11 11 11 10 10 11 11 12 12 13 13 13 14 14 14 15 15 15 15 15 15 14 15 15 15 15 15 15 15 15 15 15 15 15
14 14 13 13 12 11 11 11 11 10 10 10 9 9 9 9 9 9 9 9 9 9 9 9 9 9 9 9 10 10 11 11 11 12 12 12 11 11 11 11 11 12 12 13 13 14 14 15 15 15 15 15 15 15 15 15 15 15 15 15 15 15 14 15 15 15 15 15 15
13 13 13 12 11 11 10 10 10 10 10 9 9 9 9 9 9 9 9 9 9 9 9 8 8 8 9 9 9 9 10 10 11 11 12 12 12 12 12 11 12 12 13 14 14 15 15 16 16 16 15 15 15 16 16 16 16 16 15 15 15 14 14 14 15 15 15 16 15
12 12 12 11 10 10 10 10 10 10 9 9 9 9 8 8 9 9 9 9 9 9 8 8 8 8 8 8 9 9 9 10 10 11 11 12 12 12 12 12 12 13 13 14 15 16 16 16 16 16 16 16 16 16 17 17 17 16 16 15 15 15 14 15 15 16 16 16 16
11 11 11 10 10 9 9 9 9 9 9 9 9 8 8 8 8 8 8 8 8 8 8 8 8 8 8 8 9 9 9 9 10 11 11 11 12 12 12 12 13 13 14 15 15 16 17 17 17 16 16 16 17 17 17 17 17 17 16 16 16 15 15 15 16 16 16 16 16
9 10 9 9 9 9 9 9 9 9 8 8 8 8 8 7 7 8 8 8 8 8 8 8 9 9 9 9 9 10 10 10 10 11 11 12 12 12 12 13 13 14 14 15 16 17 17 17 17 17 17 17 18 18 18 18 18 17 17 16 16 16 16 16 16 16 16 16 16
9 8 8 8 9 9 9 9 8 8 8 8 8 7 7 7 7 7 7 7 8 8 8 8 9 10 10 10 10 11 11 11 11 11 11 12 12 13 13 14 14 15 15 16 17 18 18 18 18 17 17 18 18 18 19 19 18 18 17 17 17 17 17 17 17 16 16 16 16
7 7 8 8 9 9 9 8 8 8 7 7 7 7 7 6 6 6 6 7 8 8 8 9 9 10 11 11 12 12 12 12 12 12 12 13 13 14 14 15 15 16 16 17 18 18 19 19 18 18 18 18 19 19 19 19 19 19 18 18 18 18 18 17 17 17 16 16 16
7 7 8 8 9 9 8 8 7 7 7 7 6 6 6 6 6 6 6 7 8 8 9 10 10 10 11 12 12 12 13 13 13 13 13 13 14 15 15 16 16 17 17 18 18 19 19 19 18 18 18 19 19 20 20 21 20 19 19 18 18 18 18 18 18 18 17 17 17
7 7 8 8 9 9 8 7 7 6 6 6 6 5 5 5 6 6 6 7 8 9 9 10 11 11 12 12 12 13 13 13 14 14 14 14 15 16 16 17 17 17 17 18 18 18 18 18 18 18 18 19 20 21 22 22 21 20 19 18 18 18 18 18 19 19 18 18 18
7 7 8 8 9 9 8 7 6 6 6 5 5 5 5 5 6 6 7 8 8 9 10 11 11 12 12 13 13 13 14 14 14 15 15 15 16 16 17 17 17 17 17 17 17 17 18 18 18 18 18 19 20 21 22 22 21 20 19 18 17 18 18 19 20 20 20 19 19
6 7 8 8 8 8 8 7 6 6 6 5 5 5 5 5 6 7 7 8 9 9 10 11 11 12 12 13 13 14 14 14 14 15 15 16 16 16 16 17 17 17 17 16 16 17 17 17 17 18 19 19 20 22 22 22 21 20 18 17 17 18 19 20 21 21 21 21 21
6 7 8 8 8 8 8 7 7 6 6 5 5 5 5 6 6 7 8 8 9 10 10 11 11 12 12 13 13 14 14 14 14 15 15 15 16 16 16 16 16 16 16 16 16 16 17 17 18 18 19 20 21 21 21 21 20 19 18 18 18 19 20 21 22 22 22 21 21
7 7 8 8 8 8 8 8 7 7 6 6 6 6 6 6 7 8 8 9 9 10 10 11 11 11 12 12 13 14 14 15 15 15 15 15 15 16 16 16 15 15 15 15 15 15 16 17 17 17 18 19 20 21 21 20 20 19 19 19 20 20 21 21 22 22 21 21 21
7 8 8 8 8 8 8 8 8 8 7 7 6 6 7 7 8 8 9 9 9 10 10 11 11 12 12 13 13 14 14 15 15 16 16 16 15 15 15 15 15 14 14 15 15 15 16 16 17 16 16 16 19 20 21 20 19 19 19 19 20 20 21 21 20 20 20 20 20
7 8 8 9 9 9 9 9 9 8 8 8 7 7 7 8 8 9 9 9 10 10 10 11 12 12 13 13 14 14 15 15 15 16 16 16 16 15 15 14 14 14 14 14 15 15 16 16 17 17 16 16 17 19 20 19 19 18 18 18 19 20 20 20 19 19 20 20 21
8 9 9 10 10 10 10 10 9 9 9 8 8 8 8 8 9 9 10 10 10 11 11 11 12 13 13 14 15 15 16 16 16 16 16 15 15 15 14 14 14 14 14 15 15 16 16 17 17 18 17 17 17 18 18 18 18 18 18 18 19 20 20 20 20 21 21 22 22
9 9 10 10 11 11 11 10 10 10 9 9 9 9 9 9 9 10 10 11 11 11 12 12 13 13 14 15 15 16 16 17 17 16 16 15 15 14 14 13 13 14 14 15 16 16 17 17 17 18 18 18 18 18 18 17 17 18 18 19 20 21 21 21 21 21 21 20 21
9 10 10 11 11 12 11 11 10 10 10 10 10 10 10 10 10 10 11 11 11 12 12 13 13 14 14 15 15 16 16 17 17 16 16 15 14 13 13 13 13 14 15 15 16 16 16 17 17 18 18 19 18 18 18 17 17 18 18 19 19 20 20 20 20 19 19 18 18
9 10 10 11 12 12 12 11 11 10 10 10 10 10 10 10 11 11 11 11 12 12 13 13 14 14 14 15 15 16 16 16 16 16 16 15 14 13 12 13 13 14 15 15 15 15 15 16 17 18 18 19 18 18 17 17 17 17 17 17 17 18 18 18 18 18 17 18 18
9 10 11 11 12 12 12 11 11 10 10 11 11 11 11 11 11 11 11 12 12 13 13 13 14 14 14 14 15 15 16 16 16 16 15 15 14 13 12 12 13 14 14 15 15 14 15 16 17 18 18 18 18 17 17 17 17 17 16 15 16 16 17 18 17 17 17 18 18
10 10 11 12 12 12 12 11 11 10 11 11 11 11 11 11 11 11 11 12 13 13 14 14 14 14 14 14 14 15 15 16 16 15 15 14 13 13 12 12 13 13 14 14 14 13 14 15 16 17 17 17 17 17 17 17 17 17 16 16 17 18 18 18 18 18 18 18 18
10 11 11 12 12 12 12 11 11 11 11 11 11 11 11 11 11 11 12 12 13 13 14 14 14 14 14 14 14 15 15 15 15 15 15 14 13 12 11 12 12 13 14 14 13 12 13 14 15 16 17 17 17 17 17 18 17 16 16 16 17 17 17 18 18 18 18 18 18
10 11 11 12 12 12 12 11 11 11 11 12 12 11 11 11 11 12 12 12 13 14 14 14 14 13 13 14 14 15 15 15 15 15 14 13 12 11 11 11 12 13 13 13 12 12 12 13 15 16 16 17 17 17 17 16 16 15 15 15 16 17 17 17 18 18 18 18 17
11 11 11 12 12 12 12 12 11 11 12 12 12 11 11 11 11 12 12 13 14 14 14 13 13 12 13 13 14 15 15 15 15 14 14 13 11 11 11 11 12 13 13 12 12 11 11 12 14 15 17 18 19 18 16 15 15 15 15 16 16 17 17 17 17 17 17 17 17
11 11 11 12 12 12 12 12 12 12 12 12 12 11 11 11 11 12 13 14 14 14 13 12 12 12 12 13 14 14 15 14 14 13 13 12 11 11 11 12 12 13 13 12 12 12 12 13 14 15 17 18 19 18 17 15 15 14 15 15 16 16 16 16 17 17 17 17 17
11 11 11 12 12 12 12 12 12 12 12 11 11 11 11 11 11 12 13 13 14 13 12 11 11 11 12 13 14 14 14 14 13 12 11 11 11 11 11 12 12 12 13 13 13 13 14 15 16 17 17 17 17 16 16 15 15 14 15 15 16 16 16 16 16 17 17 18 18
11 11 11 11 11 11 11 11 12 12 11 11 10 10 10 11 11 12 13 13 13 12 11 10 10 11 12 13 13 13 13 12 11 11 10 11 11 11 11 11 12 12 13 13 14 15 16 18 19 19 18 17 16 15 15 15 15 15 15 16 16 16 16 16 16 16 17 18 18
12 12 11 11 11 11 11 11 11 11 11 10 10 10 10 10 11 12 12 12 11 10 9 9 10 11 12 13 13 12 12 11 11 10 10 10 11 11 11 11 11 13 14 15 16 17 18 19 19 19 18 17 16 16 16 16 15 15 16 17 17 17 16 15 15 15 16 17 17
12 12 11 11 10 10 10 10 10 10 10 10 10 9 10 10 11 12 12 10 9 8 8 9 10 11 12 12 12 11 11 10 10 10 10 10 10 11 11 11 12 13 15 16 18 19 20 19 19 18 18 17 16 16 17 16 15 16 17 17 17 17 16 15 15 15 15 16 16
12 12 11 10 10 10 10 10 9 9 9 9 9 9 10 11 12 11 10 8 7 7 8 9 10 11 11 11 11 10 10 10 10 10 10 10 10 10 11 12 13 15 16 18 19 20 19 19 18 17 17 17 17 17 17 16 16 16 17 17 17 16 16 15 15 15 15 16 16
Wind_Direction
69 67 64 61 60 60 60 57 52 49 45 41 38 33 32 36 35 30 26 24 20 15 11 8 4 1 359 358 358 357 354 353 356 360 4 7 8 12 18 23 27 29 30 31 33 35 36 35 32 31 29 25 24 24 22 20 17 12 7 4 360 356 353 352 350 348 346 345 344
67 64 60 57 56 55 53 50 44 41 37 33 30 28 31 37 35 31 27 24 21 18 14 11 9 6 4 2 0 357 356 358 2 7 10 13 15 21 27 30 32 33 33 32 32 34 35 33 30 28 25 21 19 17 16 14 13 9 4 2 358 355 352 350 348 346 344 343 343
63 60 56 53 50 46 44 40 36 33 31 29 28 31 35 35 33 30 28 25 22 20 18 15 13 12 11 9 5 2 3 6 9 12 16 19 23 27 31 32 32 32 32 31 29 29 29 28 26 23 20 15 13 11 9 8 8 6 2 359 357 355 352 350 347 346 344 343 342
58 55 52 49 45 42 39 36 32 30 31 33 33 33 32 31 29 27 26 23 22 21 19 17 15 14 14 12 8 7 9 11 11 15 21 26 27 28 29 28 27 27 27 26 24 23 21 20 19 16 12 9 7 6 4 3 3 2 360 358 356 355 353 352 350 348 345 343 342
53 50 47 43 39 36 34 31 31 32 33 30 30 29 28 26 25 24 23 23 22 20 18 17 17 16 14 13 11 11 12 12 12 14 18 22 23 23 23 23 21 19 18 18 17 14 13 12 11 9 6 3 1 360 359 359 359 359 358 356 356 355 354 353 352 351 349 345 345
49 45 41 37 33 30 29 28 28 29 28 25 25 25 24 23 22 21 22 22 19 17 15 16 16 16 14 13 13 13 14 13 10 8 7 9 12 13 15 15 13 11 9 8 7 7 7 6 4 1 360 358 355 354 354 354 354 355 355 354 353 353 353 353 352 352 351 349 348
46 41 37 33 29 28 27 25 25 24 23 22 21 21 21 20 19 19 19 18 16 15 14 15 15 14 14 12 12 12 12 10 6 2 358 357 359 3 5 6 6 5 2 360 360 0 2 2 360 356 354 354 351 349 349 350 349 349 349 349 349 350 351 351 351 351 350 350 350
43 38 34 30 27 25 24 24 22 22 21 20 19 18 18 17 17 17 16 16 15 14 12 13 13 13 12 11 10 10 8 5 2 358 354 350 349 351 354 357 359 359 358 356 355 355 357 359 358 356 353 351 347 345 345 345 344 343 343 344 344 346 347 347 348 348 348 348 349
41 36 31 28 26 24 23 22 21 20 19 18 17 17 16 16 16 16 16 16 13 11 11 11 11 11 11 10 9 7 5 2 358 355 351 347 344 342 344 347 350 353 354 353 352 352 352 354 354 354 352 350 346 343 342 342 340 338 337 338 339 341 343 344 345 345 346 346 346
39 34 30 27 25 23 22 21 21 20 19 18 17 16 16 16 16 16 15 13 11 10 10 10 11 11 11 10 9 6 3 359 355 352 348 344 340 338 337 338 340 344 347 349 349 349 348 348 348 348 347 346 344 342 340 339 336 333 332 332 333 336 338 341 342 343 343 343 343
37 33 29 27 24 22 21 21 21 20 19 18 17 16 16 15 15 14 13 12 11 10 10 10 11 12 12 11 9 6 2 358 354 350 346 342 338 335 332 331 332 336 340 343 345 344 343 342 341 340 340 340 340 339 337 334 332 328 326 326 328 331 335 337 339 341 341 340 341
34 31 27 24 22 22 22 22 21 20 19 18 17 16 16 14 13 12 11 10 10 10 11 11 12 13 12 12 10 6 1 357 353 349 346 342 338 334 331 329 329 331 334 337 339 339 338 336 334 333 333 335 335 334 333 330 327 324 321 322 324 327 331 334 337 338 338 337 337
32 29 26 23 22 22 22 21 20 19 18 17 16 16 15 13 11 10 10 9 9 9 10 12 13 13 11 9 7 4 360 355 352 349 346 343 339 336 333 330 329 330 331 332 333 333 332 330 329 328 328 330 331 331 330 327 324 320 317 317 319 322 326 330 332 333 334 333 333
30 27 25 24 22 21 21 20 19 18 16 15 15 14 13 12 10 9 9 8 7 6 6 8 10 11 8 4 1 359 356 352 349 347 345 344 341 338 335 333 332 331 330 330 330 328 326 325 324 324 325 326 327 328 327 325 321 317 314 312 313 316 319 323 326 327 328 329 329
29 27 25 24 22 20 18 17 16 15 14 13 12 12 12 11 9 8 6 6 5 3 2 2 3 4 2 358 353 350 348 346 345 344 343 342 341 339 337 334 333 331 329 328 326 324 322 321 321 322 323 324 324 325 324 323 320 315 311 308 308 309 312 316 319 321 322 324 326
28 27 25 23 20 16 14 13 12 11 11 11 11 11 10 10 8 5 3 0 360 359 358 356 355 354 353 351 347 343 341 340 340 340 339 339 338 337 335 333 331 329 327 324 323 321 321 320 321 321 321 321 321 322 321 320 318 314 309 306 304 305 306 310 313 316 318 320 322
28 27 24 20 15 11 9 8 7 7 7 7 8 9 9 7 5 3 358 354 353 352 353 351 348 347 346 346 344 341 338 337 337 336 336 335 334 333 332 330 327 325 323 322 321 320 320 321 321 321 320 320 319 319 318 317 315 312 308 305 302 302 303 306 310 313 315 318 320
27 23 19 14 10 7 4 2 2 2 2 3 4 5 6 4 0 357 352 349 346 345 344 344 343 343 342 342 341 340 338 336 335 334 333 331 330 329 328 326 325 323 322 321 321 321 321 322 322 321 321 320 319 318 316 315 313 310 307 304 301 300 302 305 309 312 313 315 318
21 17 13 8 4 0 358 356 355 355 356 357 359 0 0 359 354 349 345 342 341 339 338 338 338 338 338 338 338 337 336 335 333 331 330 329 328 326 325 323 322 322 322 322 322 322 323 323 323 322 322 321 320 319 317 314 311 308 305 303 300 300 302 306 310 312 314 315 317
15 10 5 360 356 354 352 349 348 347 347 349 353 354 354 350 347 342 339 337 336 335 334 334 334 335 335 335 335 334 334 333 332 330 329 328 327 326 324 323 322 322 322 323 323 324 324 324 323 322 322 321 321 321 319 316 312 308 304 302 300 301 304 308 313 315 315 316 318
7 1 356 352 350 348 345 341 339 337 337 339 343 346 345 343 340 338 335 334 333 333 333 333 333 334 334 333 333 333 332 332 331 330 329 329 328 327 325 324 323 323 323 323 324 323 323 322 322 321 321 321 322 321 320 317 313 309 305 302 300 301 304 309 313 315 316 317 317
356 352 347 343 342 341 338 334 330 327 326 326 331 335 337 336 335 334 333 333 332 332 333 333 334 334 334 333 333 332 332 331 331 330 330 329 329 328 327 325 324 323 323 323 323 322 321 320 320 319 319 319 320 320 319 316 314 311 307 303 301 301 304 307 311 313 314 314 314
347 342 337 333 333 333 330 325 320 316 314 315 319 325 329 330 330 331 331 331 331 332 333 333 334 333 333 332 332 331 331 331 331 330 330 329 328 328 326 325 323 322 321 321 321 320 319 319 318 318 318 318 319 319 317 316 314 312 309 306 303 302 304 306 309 310 311 310 310
336 333 329 325 324 324 321 316 312 308 306 305 309 315 320 323 324 325 326 328 329 331 332 332 332 332 331 331 331 331 331 330 330 329 328 328 327 325 324 323 321 320 319 319 319 318 318 318 319 319 319 319 319 318 317 315 314 313 311 308 305 304 305 307 308 309 309 308 307
328 325 321 317 315 314 313 309 304 300 298 298 302 308 313 317 319 320 321 323 325 327 329 329 329 329 329 329 329 329 329 328 327 326 325 324 324 323 321 320 319 318 317 317 317 317 318 318 319 320 320 319 319 318 317 316 315 314 312 309 307 307 308 309 309 309 309 308 307
322 319 314 310 308 308 307 302 298 295 293 293 296 302 307 312 314 315 316 318 320 322 324 325 325 325 326 327 327 328 327 326 325 323 321 321 320 320 319 318 317 317 317 317 317 317 318 318 319 320 321 320 320 320 320 319 318 316 314 312 311 311 312 313 312 311 311 310 308
316 314 310 306 304 303 302 298 294 290 289 288 291 295 301 306 309 310 312 313 314 316 319 320 321 323 324 326 327 328 327 326 324 321 319 318 317 318 317 317 317 317 317 318 318 319 320 320 320 320 321 321 321 322 321 320 319 317 315 314 313 313 314 314 313 312 311 310 308
311 310 308 304 302 302 300 296 291 286 284 284 286 290 296 302 305 306 308 308 310 312 314 316 319 321 324 326 329 330 330 328 325 321 317 315 315 315 315 316 316 317 318 319 320 321 321 321 321 320 321 321 321 321 321 319 317 315 314 313 312 313 313 313 312 312 310 309 308
310 310 307 305 304 303 300 295 288 284 281 280 282 287 292 298 301 303 304 305 306 309 312 315 317 321 325 328 331 333 333 331 327 322 317 314 313 312 313 313 315 317 319 320 321 322 322 321 320 320 321 322 322 322 320 318 316 314 313 313 312 312 313 312 312 311 310 310 310
310 310 309 308 307 305 301 295 288 282 278 277 280 284 290 294 297 299 301 302 304 307 310 313 317 321 326 329 333 334 335 333 329 323 318 313 311 310 311 312 315 318 320 322 323 323 322 321 321 321 322 323 324 323 320 317 316 315 315 314 314 314 314 313 313 312 312 313 313
310 311 311 311 310 308 304 297 289 281 276 276 279 283 288 292 295 297 298 300 302 305 309 312 317 321 325 329 332 335 335 333 329 323 318 313 310 309 310 313 318 321 323 324 325 325 323 321 321 323 324 325 325 323 321 319 318 317 316 316 316 316 316 316 315 315 315 316 316
311 312 313 313 313 310 306 298 288 280 276 276 279 283 287 290 292 293 295 297 301 305 310 314 318 321 325 329 332 334 334 332 328 323 318 313 310 310 312 316 321 324 326 328 329 327 324 323 323 325 326 326 325 323 321 320 319 318 317 317 317 317 317 317 317 317 317 318 318
311 313 314 314 313 311 305 297 288 280 277 278 280 284 287 289 290 291 293 296 301 307 312 316 319 322 326 330 332 333 333 331 327 322 318 314 312 312 315 319 323 325 327 330 331 329 327 325 326 327 327 327 326 324 322 321 320 319 319 319 319 320 320 320 319 319 319 319 319
311 313 314 314 313 310 304 296 287 281 279 279 281 283 285 287 289 291 294 299 304 309 313 317 320 324 327 331 332 332 331 329 326 323 320 317 315 316 319 322 324 326 328 330 331 331 331 329 329 329 329 328 327 325 324 323 321 320 320 321 321 322 322 322 321 320 320 320 320
310 311 312 312 312 309 304 296 288 282 280 280 281 283 283 285 288 292 297 302 307 311 315 318 321 326 330 332 333 332 330 328 326 323 322 319 318 319 321 323 325 327 328 328 328 330 331 331 331 330 329 328 326 325 324 324 322 321 322 322 322 323 323 323 322 321 321 321 320
308 309 310 311 311 308 304 297 291 285 282 281 282 282 283 285 289 295 300 305 310 313 317 320 325 329 333 334 333 332 330 328 326 325 325 323 323 324 325 326 327 327 327 326 325 325 327 328 329 329 328 327 325 325 324 324 323 322 323 324 323 324 324 323 323 322 322 322 323
306 307 308 309 309 308 305 300 295 290 285 282 281 282 284 288 294 300 305 309 313 316 320 325 330 333 334 335 334 332 330 330 330 330 330 330 330 331 331 330 329 327 327 325 324 324 325 325 326 328 329 327 325 324 324 325 325 324 324 324 323 323 323 322 322 322 323 325 328
306 306 306 307 308 308 306 303 299 293 287 282 281 282 286 291 298 304 309 312 315 318 323 330 334 336 336 336 335 334 333 333 335 337 338 338 338 338 337 334 331 329 328 327 327 327 328 328 329 330 331 329 326 324 325 325 325 325 324 323 322 321 321 322 322 322 323 326 330
306 305 305 305 307 308 307 304 299 293 286 282 281 282 287 294 302 308 311 313 315 320 327 334 337 337 337 337 337 336 337 338 341 344 346 346 345 343 341 337 332 330 330 331 331 331 332 333 333 335 335 332 328 326 326 327 326 325 324 323 322 321 321 322 323 323 323 324 328
306 304 303 303 305 307 306 302 295 288 282 279 280 284 291 299 306 310 311 312 316 323 331 337 338 338 338 339 340 341 341 343 346 350 353 352 349 345 341 338 335 333 334 334 334 335 335 336 337 339 338 335 331 329 329 330 327 325 325 324 323 323 324 325 326 325 325 324 324
305 303 300 300 302 304 303 297 288 280 276 275 279 287 296 303 307 309 309 311 318 328 335 338 338 338 339 341 343 345 347 348 350 354 356 354 349 343 340 339 338 337 337 337 338 338 339 340 341 342 342 339 334 332 331 330 328 326 326 325 325 326 327 328 329 329 328 327 326